RJFSRJFU

Guest
Details From RJFS - SAGA
To RJFU - NAGASAKI
Flight Number -
Tags generated
Created
Modified
Stats Distance 25 nm / 47 km
Max Altitude 200 ft / 61 m
Waypoints 3
Social Downloads 0
Likes 0
Share VATSIM

Download

Looking for another format? Having issues loading an existing format? Contact us
Advertisement - Login to hide

Notes

Basic altitude profile: - Ascent Rate: 2500ft/min - Ascent Speed: 250kts - Cruise Altitude: 35000ft - Cruise Speed: 420kts - Descent Rate: 1500ft/min - Descent Speed: 250kts Options: - Use NATs: yes - Use PACOTS: yes - Use low airways: yes - Use high airways: yes

Route

RJFS OLE RJFU

ID Type Via Altitude Latitude Longitude Leg Dist Tot Dist Heading (true) Name
O RJFS APT - 0 ft / 0 m 33.14972˚ 130.30222˚ - 0 nm - SAGA
OLE VOR - 200 ft / 61 m 32.90525˚ 129.91798˚ 24 nm 24 nm 233° / 233° NAGASAKI VOR-DME
O RJFU APT - 0 ft / 0 m 32.92250˚ 129.92346˚ 1 nm 25 nm 15° / 15° NAGASAKI

Altitude Profile

Advertisement - Login to hide

RJFS

Details ICAO RJFS (HSG)
Name SAGA
Region Japan
Timezone Asia/Tokyo (UTC+9.0)
Stats Elevation 5 ft / 2 m (AMSL)
Location 33.149718° 130.302221°
Runways 1
Magnetic Variation 7.348° W

METAR

RJFS 260700Z 06014KT 9999 FEW035 27/14 Q1005

Decode

TAF

TAF RJFS 260508Z 2606/2712 03012KT 9999 FEW030 BECMG 2614/2616 21006KT BECMG 2706/2709 17005KT

Decode

Departure Runways

ID Width Length Bearing (true) Bearing (mag) Surface Threshold Offset Overrun Length
11 148 ft / 45 m 6,550 ft / 1,997 m 99.29° 106.64° Asphalt 0 ft / 0 m 200 ft / 61 m
29 148 ft / 45 m 6,550 ft / 1,997 m 279.30° 286.65° Asphalt 0 ft / 0 m 200 ft / 61 m

RJFU

Details ICAO RJFU (NGS)
Name NAGASAKI
Region Japan
Timezone Asia/Tokyo (UTC+9.0)
Stats Elevation 15 ft / 5 m (AMSL)
Location 32.922505° 129.923457°
Runways 2
Magnetic Variation 7.271° W

METAR

RJFU 260700Z 36010KT 9999 FEW035 25/17 Q1005

Decode

TAF

TAF RJFU 260513Z 2606/2712 32010KT 9999 FEW020 BECMG 2609/2611 14005KT BECMG 2700/2703 34006KT BECMG 2709/2712 14005KT

Decode

Destination Runways

ID Width Length Bearing (true) Bearing (mag) Surface Threshold Offset Overrun Length
14 200 ft / 61 m 9,851 ft / 3,003 m 138.12° 145.39° Asphalt 0 ft / 0 m 200 ft / 61 m
18 100 ft / 30 m 4,363 ft / 1,330 m 174.19° 181.46° Asphalt 245 ft / 75 m 0 ft / 0 m
32 200 ft / 61 m 9,851 ft / 3,003 m 318.14° 325.41° Asphalt 0 ft / 0 m 200 ft / 61 m
36 100 ft / 30 m 4,363 ft / 1,330 m 354.19° 1.46° Asphalt 245 ft / 75 m 0 ft / 0 m

Approach Navaids

Runway Type Ident Frequency Range Bearing (true) Bearing (mag) Slope Elevation
32 Localiser IOM 110.90 MHz 18 nm / 33 km 318.95° 326.22° - 30 ft / 9 m (AMSL)
32 Glidescope IOM 110.90 MHz 10 nm / 19 km 318.13° 325.40° 3.00° 15 ft / 5 m (AMSL)
32 DME IOM 110.90 MHz 18 nm / 33 km - - - 30 ft / 9 m (AMSL)